Location: Unspecified
(0.0000°N, 0.0000°E)
Time: 03:21:41
(UTC+02:00)

OPAL - Visible Passes

Search period start: 25 May 2015 00:00
Search period end: 04 June 2015 00:00
Orbit: 744 x 795 km, 100.2° (Epoch: 24 May)

Date Brightness Start Highest point End Pass type
(mag) Time Alt. Az. Time Alt. Az. Time Alt. Az.
25 May 7.3 21:38:29 10° NNE 21:43:35 78° ESE 21:44:36 57° S visible
26 May 8.3 21:04:03 10° NE 21:08:17 27° ESE 21:08:32 27° ESE visible
26 May 10.0 22:43:33 10° NNW 22:47:03 18° WNW 22:48:49 15° WSW visible
27 May 8.3 22:06:48 10° N 22:11:44 49° WNW 22:12:45 42° WSW visible
28 May 7.4 21:31:28 10° NNE 21:36:28 58° ESE 21:36:43 58° ESE visible
29 May 8.7 20:57:28 10° NE 21:00:41 21° E 21:00:41 21° E visible
29 May 9.6 22:35:51 10° NNW 22:39:54 23° WNW 22:40:58 21° W visible
30 May 7.8 21:59:33 10° N 22:04:35 65° WNW 22:04:57 63° W visible
31 May 7.8 21:24:31 10° NNE 21:28:56 43° E 21:28:56 43° E visible
31 May 10.5 23:07:01 10° WNW 23:08:07 10° WNW 23:08:45 10° W visible
01 Jun 9.1 20:51:05 10° ENE 20:52:55 15° E 20:52:55 15° E visible
01 Jun 9.2 22:28:18 10° NNW 22:32:44 30° WNW 22:33:13 29° W visible
02 Jun 7.4 21:52:22 10° NNE 21:57:12 81° NNW 21:57:12 81° NNW visible
03 Jun 8.3 21:17:40 10° NE 21:21:13 31° E 21:21:13 31° E visible
03 Jun 10.2 22:58:11 10° NW 23:00:56 14° WNW 23:01:30 14° W visible
